Weather History for Evanston, WY

Change the Weather History Date:

Monday, March 11, 2013

  Actual Average Record
Temperature  
Mean Temperature 31 °F 29 °F  
Max Temperature 38 °F 38 °F 46 °F (1997)
Min Temperature 24 °F 21 °F 7 °F (2006)
Degree Days  
Heating Degree Days 34 36  
Month to date heating degree days 384 411  
Since 1 July heating degree days 5979 6419  
Cooling Degree Days 0 0  
Month to date cooling degree days 0 0  
Year to date cooling degree days 0 0  
Moisture  
Dew Point 21 °F    
Average Humidity 64    
Maximum Humidity 75    
Minimum Humidity 52    
Precipitation  
Precipitation 0.00 in 0.02 in 0.01 in (2001)
Month to date precipitation 0.15 0.23  
Year to date precipitation 0.62 1.38  
Sea Level Pressure  
Sea Level Pressure 30.18 in    
Wind  
Wind Speed 17 mph (WSW)    
Max Wind Speed 30 mph    
Max Gust Speed 37 mph    
Visibility 10 miles    
Events      
T = Trace of Precipitation, MM = Missing Value Source: NWS Daily Summary

Daily Weather History Graph

Daily Weather History Graph

Search for Another Location

Airport:

Trip Planner

Search our weather history database for the weather conditions in past years. The results will help you decide how hot, cold, wet, or windy it might be!

Date:

Astronomy

Mar. 11, 2013 Rise Set
Actual Time 7:41 AM MDT 7:26 PM MDT
Civil Twilight 7:14 AM MDT 7:54 PM MDT
Nautical Twilight 6:42 AM MDT 8:26 PM MDT
Astronomical Twilight 6:10 AM MDT 8:58 PM MDT
Moon 7:17 AM MDT (3/11) 7:43 PM MDT (3/11)
Length of Visible Light 12h 39m
Length of Day
11h 44m
Waning Crescent, 0% of the Moon is Illuminated
Mar 11
Waning Crescent
Mar 11
New
Mar 19
First Quarter
Mar 27
Full
Apr 2
Last Quarter

Hourly Weather History & Observations

Time (MDT) Temp. Windchill Dew Point Humidity Pressure Visibility Wind Dir Wind Speed Gust Speed Precip Events Conditions
1:53 AM 26.1 °F 13.1 °F 16.0 °F 66% 30.23 in 10.0 mi SW 17.3 mph - N/A   Clear
2:53 AM 25.0 °F 13.1 °F 15.1 °F 66% 30.22 in 10.0 mi SW 13.8 mph - N/A   Clear
3:53 AM 26.1 °F 17.6 °F 16.0 °F 66% 30.20 in 10.0 mi SSW 8.1 mph - N/A   Clear
4:53 AM 28.9 °F 16.5 °F 17.1 °F 61% 30.17 in 10.0 mi West 18.4 mph - N/A   Overcast
5:53 AM 28.0 °F 19.3 °F 17.1 °F 63% 30.18 in 10.0 mi South 9.2 mph - N/A   Mostly Cloudy
6:53 AM 27.0 °F 16.1 °F 17.1 °F 66% 30.21 in 10.0 mi SW 12.7 mph - N/A   Overcast
7:53 AM 27.0 °F 13.5 °F 17.1 °F 66% 30.21 in 10.0 mi WSW 19.6 mph - N/A   Partly Cloudy
8:53 AM 28.9 °F 16.9 °F 18.0 °F 64% 30.22 in 10.0 mi WSW 17.3 mph - N/A   Mostly Cloudy
9:53 AM 32.0 °F 20.8 °F 18.0 °F 56% 30.21 in 10.0 mi WSW 17.3 mph - N/A   Overcast
10:53 AM 34.0 °F 21.5 °F 19.0 °F 54% 30.19 in 10.0 mi SW 24.2 mph - N/A   Overcast
11:53 AM 35.1 °F 23.8 °F 19.9 °F 54% 30.20 in 10.0 mi WSW 20.7 mph 26.5 mph N/A   Overcast
12:53 PM 37.0 °F 25.9 °F 21.9 °F 54% 30.19 in 10.0 mi West 23.0 mph 33.4 mph N/A   Partly Cloudy
1:53 PM 37.9 °F 26.1 °F 23.0 °F 55% 30.15 in 10.0 mi West 27.6 mph 33.4 mph N/A   Clear
2:53 PM 37.9 °F 27.3 °F 25.0 °F 60% 30.14 in 10.0 mi West 21.9 mph 35.7 mph N/A   Clear
3:53 PM 37.9 °F 26.6 °F 25.0 °F 60% 30.15 in 10.0 mi WSW 25.3 mph 33.4 mph N/A   Clear
5:53 PM 37.0 °F 25.4 °F 25.0 °F 62% 30.13 in 10.0 mi West 25.3 mph 31.1 mph N/A   Partly Cloudy
6:53 PM 36.0 °F 27.1 °F 26.1 °F 67% 30.16 in 10.0 mi WSW 13.8 mph - N/A   Overcast
7:53 PM 34.0 °F 23.8 °F 25.0 °F 70% 30.17 in 10.0 mi West 16.1 mph - N/A   Overcast
8:53 PM 34.0 °F 27.2 °F 25.0 °F 70% 30.16 in 10.0 mi SW 8.1 mph - N/A   Partly Cloudy
9:53 PM 33.1 °F 23.4 °F 25.0 °F 72% 30.15 in 10.0 mi WSW 13.8 mph - N/A   Clear
10:53 PM 33.1 °F 21.9 °F 26.1 °F 75% 30.14 in 10.0 mi West 18.4 mph - N/A   Clear
11:53 PM 32.0 °F 22.1 °F 25.0 °F 75% 30.16 in 10.0 mi WSW 13.8 mph - N/A   Clear